Year,Month,Day,Hour,Minute,Value (Times are PST for temperature in C)
2012,08,16,00,00,20.10
2012,08,16,00,01,20.10
2012,08,16,00,02,20.10
2012,08,16,00,03,20.10
2012,08,16,00,04,20.10
2012,08,16,00,05,20.10
2012,08,16,00,06,20.00
2012,08,16,00,07,19.90
2012,08,16,00,08,19.90
2012,08,16,00,09,19.90
2012,08,16,00,10,19.90
2012,08,16,00,11,19.90
2012,08,16,00,12,19.90
2012,08,16,00,13,19.90
2012,08,16,00,14,19.80
2012,08,16,00,15,19.80
2012,08,16,00,16,19.80
2012,08,16,00,17,19.80
2012,08,16,00,18,19.80
2012,08,16,00,19,19.70
2012,08,16,00,20,19.70
2012,08,16,00,21,19.70
2012,08,16,00,22,19.70
2012,08,16,00,23,19.70
2012,08,16,00,24,19.70
2012,08,16,00,25,19.70
2012,08,16,00,26,19.60
2012,08,16,00,27,19.70
2012,08,16,00,28,19.70
2012,08,16,00,29,19.70
2012,08,16,00,30,19.70
2012,08,16,00,31,19.70
2012,08,16,00,32,19.70
2012,08,16,00,33,19.70
2012,08,16,00,34,19.70
2012,08,16,00,35,19.70
2012,08,16,00,36,19.70
2012,08,16,00,37,19.70
2012,08,16,00,38,19.70
2012,08,16,00,39,19.70
2012,08,16,00,40,19.70
2012,08,16,00,41,19.70
2012,08,16,00,42,19.70
2012,08,16,00,43,19.70
2012,08,16,00,44,19.60
2012,08,16,00,45,19.60
2012,08,16,00,46,19.60
2012,08,16,00,47,19.60
2012,08,16,00,48,19.50
2012,08,16,00,49,19.50
2012,08,16,00,50,19.50
2012,08,16,00,51,19.40
2012,08,16,00,52,19.40
2012,08,16,00,53,19.40
2012,08,16,00,54,19.40
2012,08,16,00,55,19.40
2012,08,16,00,56,19.40
2012,08,16,00,57,19.40
2012,08,16,00,58,19.40
2012,08,16,00,59,19.40
2012,08,16,01,00,19.40
2012,08,16,01,01,19.40
2012,08,16,01,02,19.30
2012,08,16,01,03,19.30
2012,08,16,01,04,19.30
2012,08,16,01,05,19.20
2012,08,16,01,06,19.20
2012,08,16,01,07,19.20
2012,08,16,01,08,19.20
2012,08,16,01,09,19.20
2012,08,16,01,10,19.20
2012,08,16,01,11,19.10
2012,08,16,01,12,19.10
2012,08,16,01,13,19.10
2012,08,16,01,14,19.10
2012,08,16,01,15,19.10
2012,08,16,01,16,19.10
2012,08,16,01,17,19.10
2012,08,16,01,18,19.10
2012,08,16,01,19,19.00
2012,08,16,01,20,18.90
2012,08,16,01,21,18.90
2012,08,16,01,22,18.90
2012,08,16,01,23,18.90
2012,08,16,01,24,18.90
2012,08,16,01,25,18.90
2012,08,16,01,26,18.80
2012,08,16,01,27,18.80
2012,08,16,01,28,18.80
2012,08,16,01,29,18.70
2012,08,16,01,30,18.70
2012,08,16,01,31,18.70
2012,08,16,01,32,18.70
2012,08,16,01,33,18.60
2012,08,16,01,34,18.60
2012,08,16,01,35,18.60
2012,08,16,01,36,18.60
2012,08,16,01,37,18.50
2012,08,16,01,38,18.50
2012,08,16,01,39,18.50
2012,08,16,01,40,18.50
2012,08,16,01,41,18.50
2012,08,16,01,42,18.50
2012,08,16,01,43,18.50
2012,08,16,01,44,18.40
2012,08,16,01,45,18.40
2012,08,16,01,46,18.40
2012,08,16,01,47,18.40
2012,08,16,01,48,18.40
2012,08,16,01,49,18.40
2012,08,16,01,50,18.40
2012,08,16,01,51,18.40
2012,08,16,01,52,18.40
2012,08,16,01,53,18.40
2012,08,16,01,54,18.40
2012,08,16,01,55,18.40
2012,08,16,01,56,18.40
2012,08,16,01,57,18.40
2012,08,16,01,58,18.30
2012,08,16,01,59,18.30
2012,08,16,02,00,18.30
2012,08,16,02,01,18.20
2012,08,16,02,02,18.20
2012,08,16,02,03,18.20
2012,08,16,02,04,18.20
2012,08,16,02,05,18.20
2012,08,16,02,06,18.20
2012,08,16,02,07,18.20
2012,08,16,02,08,18.20
2012,08,16,02,09,18.20
2012,08,16,02,10,18.20
2012,08,16,02,11,18.20
2012,08,16,02,12,18.10
2012,08,16,02,13,18.10
2012,08,16,02,14,18.10
2012,08,16,02,15,18.10
2012,08,16,02,16,18.10
2012,08,16,02,17,18.10
2012,08,16,02,18,18.10
2012,08,16,02,19,18.10
2012,08,16,02,20,18.00
2012,08,16,02,21,17.90
2012,08,16,02,22,17.90
2012,08,16,02,23,17.90
2012,08,16,02,24,17.90
2012,08,16,02,25,17.90
2012,08,16,02,26,17.90
2012,08,16,02,27,17.90
2012,08,16,02,28,17.90
2012,08,16,02,29,17.90
2012,08,16,02,30,17.90
2012,08,16,02,31,17.90
2012,08,16,02,32,17.90
2012,08,16,02,33,17.90
2012,08,16,02,34,17.80
2012,08,16,02,35,17.80
2012,08,16,02,36,17.80
2012,08,16,02,37,17.80
2012,08,16,02,38,17.80
2012,08,16,02,39,17.80
2012,08,16,02,40,17.70
2012,08,16,02,41,17.70
2012,08,16,02,42,17.70
2012,08,16,02,43,17.70
2012,08,16,02,44,17.70
2012,08,16,02,45,17.70
2012,08,16,02,46,17.70
2012,08,16,02,47,17.70
2012,08,16,02,48,17.70
2012,08,16,02,49,17.60
2012,08,16,02,50,17.60
2012,08,16,02,51,17.60
2012,08,16,02,52,17.60
2012,08,16,02,53,17.60
2012,08,16,02,54,17.50
2012,08,16,02,55,17.50
2012,08,16,02,56,17.50
2012,08,16,02,57,17.50
2012,08,16,02,58,17.50
2012,08,16,02,59,17.50
2012,08,16,03,00,17.50
2012,08,16,03,01,17.40
2012,08,16,03,02,17.40
2012,08,16,03,03,17.40
2012,08,16,03,04,17.40
2012,08,16,03,05,17.40
2012,08,16,03,06,17.40
2012,08,16,03,07,17.40
2012,08,16,03,08,17.40
2012,08,16,03,09,17.40
2012,08,16,03,10,17.30
2012,08,16,03,11,17.30
2012,08,16,03,12,17.30
2012,08,16,03,13,17.30
2012,08,16,03,14,17.30
2012,08,16,03,15,17.30
2012,08,16,03,16,17.30
2012,08,16,03,17,17.30
2012,08,16,03,18,17.30
2012,08,16,03,19,17.30
2012,08,16,03,20,17.30
2012,08,16,03,21,17.30
2012,08,16,03,22,17.30
2012,08,16,03,23,17.30
2012,08,16,03,24,17.30
2012,08,16,03,25,17.30
2012,08,16,03,26,17.30
2012,08,16,03,27,17.30
2012,08,16,03,28,17.30
2012,08,16,03,29,17.30
2012,08,16,03,30,17.30
2012,08,16,03,31,17.20
2012,08,16,03,32,17.20
2012,08,16,03,33,17.20
2012,08,16,03,34,17.20
2012,08,16,03,35,17.20
2012,08,16,03,36,17.20
2012,08,16,03,37,17.20
2012,08,16,03,38,17.10
2012,08,16,03,39,17.10
2012,08,16,03,40,17.10
2012,08,16,03,41,17.10
2012,08,16,03,42,17.10
2012,08,16,03,43,17.10
2012,08,16,03,44,17.10
2012,08,16,03,45,17.10
2012,08,16,03,46,17.10
2012,08,16,03,47,17.10
2012,08,16,03,48,17.10
2012,08,16,03,49,17.10
2012,08,16,03,50,17.10
2012,08,16,03,51,17.00
2012,08,16,03,52,17.00
2012,08,16,03,53,17.00
2012,08,16,03,54,17.00
2012,08,16,03,55,17.00
2012,08,16,03,56,16.90
2012,08,16,03,57,16.90
2012,08,16,03,58,16.90
2012,08,16,03,59,16.90
2012,08,16,04,00,16.90
2012,08,16,04,01,16.90
2012,08,16,04,02,16.90
2012,08,16,04,03,16.90
2012,08,16,04,04,16.90
2012,08,16,04,05,16.90
2012,08,16,04,06,16.90
2012,08,16,04,07,16.90
2012,08,16,04,08,17.00
2012,08,16,04,09,17.00
2012,08,16,04,10,17.00
2012,08,16,04,11,17.10
2012,08,16,04,12,17.10
2012,08,16,04,13,17.10
2012,08,16,04,14,17.10
2012,08,16,04,15,17.10
2012,08,16,04,16,17.20
2012,08,16,04,17,17.20
2012,08,16,04,18,17.20
2012,08,16,04,19,17.20
2012,08,16,04,20,17.20
2012,08,16,04,21,17.10
2012,08,16,04,22,17.10
2012,08,16,04,23,17.10
2012,08,16,04,24,17.10
2012,08,16,04,25,17.10
2012,08,16,04,26,17.10
2012,08,16,04,27,17.20
2012,08,16,04,28,17.20
2012,08,16,04,29,17.30
2012,08,16,04,30,17.30
2012,08,16,04,31,17.30
2012,08,16,04,32,17.40
2012,08,16,04,33,17.50
2012,08,16,04,34,17.50
2012,08,16,04,35,17.60
2012,08,16,04,36,17.70
2012,08,16,04,37,17.70
2012,08,16,04,38,17.80
2012,08,16,04,39,17.80
2012,08,16,04,40,17.90
2012,08,16,04,41,17.90
2012,08,16,04,42,17.90
2012,08,16,04,43,17.90
2012,08,16,04,44,17.90
2012,08,16,04,45,17.90
2012,08,16,04,46,17.90
2012,08,16,04,47,17.90
2012,08,16,04,48,17.90
2012,08,16,04,49,17.90
2012,08,16,04,50,17.90
2012,08,16,04,51,17.90
2012,08,16,04,52,17.90
2012,08,16,04,53,17.90
2012,08,16,04,54,17.90
2012,08,16,04,55,17.90
2012,08,16,04,56,17.90
2012,08,16,04,57,17.90
2012,08,16,04,58,17.90
2012,08,16,04,59,17.90
2012,08,16,05,00,17.80
2012,08,16,05,01,17.80
2012,08,16,05,02,17.80
2012,08,16,05,03,17.80
2012,08,16,05,04,17.70
2012,08,16,05,05,17.70
2012,08,16,05,06,17.70
2012,08,16,05,07,17.70
2012,08,16,05,08,17.60
2012,08,16,05,09,17.60
2012,08,16,05,10,17.60
2012,08,16,05,11,17.50
2012,08,16,05,12,17.50
2012,08,16,05,13,17.50
2012,08,16,05,14,17.40
2012,08,16,05,15,17.40
2012,08,16,05,16,17.40
2012,08,16,05,17,17.30
2012,08,16,05,18,17.30
2012,08,16,05,19,17.30
2012,08,16,05,20,17.30
2012,08,16,05,21,17.30
2012,08,16,05,22,17.30
2012,08,16,05,23,17.30
2012,08,16,05,24,17.20
2012,08,16,05,25,17.20
2012,08,16,05,26,17.20
2012,08,16,05,27,17.20
2012,08,16,05,28,17.10
2012,08,16,05,29,17.10
2012,08,16,05,30,17.10
2012,08,16,05,31,17.10
2012,08,16,05,32,17.10
2012,08,16,05,33,17.00
2012,08,16,05,34,17.00
2012,08,16,05,35,17.00
2012,08,16,05,36,16.90
2012,08,16,05,37,16.90
2012,08,16,05,38,16.90
2012,08,16,05,39,16.80
2012,08,16,05,40,16.80
2012,08,16,05,41,16.80
2012,08,16,05,42,16.80
2012,08,16,05,43,16.80
2012,08,16,05,44,16.80
2012,08,16,05,45,16.80
2012,08,16,05,46,16.80
2012,08,16,05,47,16.80
2012,08,16,05,48,16.90
2012,08,16,05,49,16.90
2012,08,16,05,50,16.90
2012,08,16,05,51,16.90
2012,08,16,05,52,16.90
2012,08,16,05,53,16.90
2012,08,16,05,54,16.90
2012,08,16,05,55,16.90
2012,08,16,05,56,16.90
2012,08,16,05,57,16.80
2012,08,16,05,58,16.80
2012,08,16,05,59,16.80
2012,08,16,06,00,16.80
2012,08,16,06,01,16.80
2012,08,16,06,02,16.80
2012,08,16,06,03,16.80
2012,08,16,06,04,16.80
2012,08,16,06,05,16.90
2012,08,16,06,06,16.90
2012,08,16,06,07,16.90
2012,08,16,06,08,16.90
2012,08,16,06,09,16.90
2012,08,16,06,10,17.00
2012,08,16,06,11,17.00
2012,08,16,06,12,17.00
2012,08,16,06,13,17.00
2012,08,16,06,14,17.10
2012,08,16,06,15,17.10
2012,08,16,06,16,17.10
2012,08,16,06,17,17.10
2012,08,16,06,18,17.10
2012,08,16,06,19,17.00
2012,08,16,06,20,17.00
2012,08,16,06,21,17.00
2012,08,16,06,22,17.00
2012,08,16,06,23,17.00
2012,08,16,06,24,17.00
2012,08,16,06,25,17.00
2012,08,16,06,26,17.00
2012,08,16,06,27,17.00
2012,08,16,06,28,17.00
2012,08,16,06,29,17.00
2012,08,16,06,30,17.00
2012,08,16,06,31,17.10
2012,08,16,06,32,17.10
2012,08,16,06,33,17.10
2012,08,16,06,34,17.20
2012,08,16,06,35,17.20
2012,08,16,06,36,17.30
2012,08,16,06,37,17.30
2012,08,16,06,38,17.30
2012,08,16,06,39,17.30
2012,08,16,06,40,17.40
2012,08,16,06,41,17.40
2012,08,16,06,42,17.40
2012,08,16,06,43,17.50
2012,08,16,06,44,17.50
2012,08,16,06,45,17.50
2012,08,16,06,46,17.50
2012,08,16,06,47,17.50
2012,08,16,06,48,17.50
2012,08,16,06,49,17.60
2012,08,16,06,50,17.60
2012,08,16,06,51,17.60
2012,08,16,06,52,17.60
2012,08,16,06,53,17.60
2012,08,16,06,54,17.60
2012,08,16,06,55,17.60
2012,08,16,06,56,17.70
2012,08,16,06,57,17.70
2012,08,16,06,58,17.70
2012,08,16,06,59,17.70
2012,08,16,07,00,17.70
2012,08,16,07,01,17.70
2012,08,16,07,02,17.80
2012,08,16,07,03,17.80
2012,08,16,07,04,17.80
2012,08,16,07,05,17.90
2012,08,16,07,06,17.90
2012,08,16,07,07,17.90
2012,08,16,07,08,17.90
2012,08,16,07,09,18.00
2012,08,16,07,10,18.10
2012,08,16,07,11,18.10
2012,08,16,07,12,18.10
2012,08,16,07,13,18.20
2012,08,16,07,14,18.20
2012,08,16,07,15,18.20
2012,08,16,07,16,18.20
2012,08,16,07,17,18.20
2012,08,16,07,18,18.20
2012,08,16,07,19,18.20
2012,08,16,07,20,18.20
2012,08,16,07,21,18.20
2012,08,16,07,22,18.20
2012,08,16,07,23,18.20
2012,08,16,07,24,18.20
2012,08,16,07,25,18.20
2012,08,16,07,26,18.20
2012,08,16,07,27,18.20
2012,08,16,07,28,18.30
2012,08,16,07,29,18.30
2012,08,16,07,30,18.30
2012,08,16,07,31,18.30
2012,08,16,07,32,18.40
2012,08,16,07,33,18.40
2012,08,16,07,34,18.40
2012,08,16,07,35,18.50
2012,08,16,07,36,18.50
2012,08,16,07,37,18.50
2012,08,16,07,38,18.60
2012,08,16,07,39,18.60
2012,08,16,07,40,18.60
2012,08,16,07,41,18.70
2012,08,16,07,42,18.70
2012,08,16,07,43,18.80
2012,08,16,07,44,18.80
2012,08,16,07,45,18.80
2012,08,16,07,46,18.90
2012,08,16,07,47,18.90
2012,08,16,07,48,19.00
2012,08,16,07,49,19.10
2012,08,16,07,50,19.10
2012,08,16,07,51,19.10
2012,08,16,07,52,19.10
2012,08,16,07,53,19.20
2012,08,16,07,54,19.30
2012,08,16,07,55,19.30
2012,08,16,07,56,19.40
2012,08,16,07,57,19.40
2012,08,16,07,58,19.50
2012,08,16,07,59,19.50
2012,08,16,08,00,19.60
2012,08,16,08,01,19.60
2012,08,16,08,02,19.70
2012,08,16,08,03,19.80
2012,08,16,08,04,19.90
2012,08,16,08,05,19.90
2012,08,16,08,06,20.00
2012,08,16,08,07,20.10
2012,08,16,08,08,20.20
2012,08,16,08,09,20.20
2012,08,16,08,10,20.30
2012,08,16,08,11,20.40
2012,08,16,08,12,20.50
2012,08,16,09,40,24.50
2012,08,16,09,41,24.60
2012,08,16,09,42,24.60
2012,08,16,09,43,24.60
2012,08,16,09,44,24.60
2012,08,16,09,45,24.60
2012,08,16,09,46,24.60
2012,08,16,09,47,24.70
2012,08,16,09,48,24.70
2012,08,16,09,49,24.70
2012,08,16,09,50,24.80
2012,08,16,09,51,24.80
2012,08,16,09,52,24.70
2012,08,16,09,53,24.70
2012,08,16,09,54,24.70
2012,08,16,09,55,24.70
2012,08,16,09,56,24.70
2012,08,16,09,57,24.70
2012,08,16,09,58,24.70
2012,08,16,09,59,24.70
2012,08,16,10,00,24.70
2012,08,16,10,01,24.70
2012,08,16,10,02,24.70
2012,08,16,10,03,24.60
2012,08,16,10,04,24.60
2012,08,16,10,05,24.60
2012,08,16,10,06,24.60
2012,08,16,10,07,24.60
2012,08,16,10,08,24.60
2012,08,16,10,09,24.60
2012,08,16,10,10,24.70
2012,08,16,10,11,24.70
2012,08,16,10,12,24.80
2012,08,16,10,13,24.80
2012,08,16,10,14,24.90
2012,08,16,10,15,24.90
2012,08,16,10,16,25.00
2012,08,16,10,17,25.10
2012,08,16,10,18,25.10
2012,08,16,10,19,25.10
2012,08,16,10,20,25.10
2012,08,16,10,21,25.00
2012,08,16,10,22,25.00
2012,08,16,10,23,25.00
2012,08,16,10,24,25.10
2012,08,16,10,25,25.10
2012,08,16,10,26,25.20
2012,08,16,10,27,25.20
2012,08,16,10,28,25.20
2012,08,16,10,29,25.30
2012,08,16,10,30,25.30
2012,08,16,10,31,25.40
2012,08,16,10,32,25.40
2012,08,16,10,33,25.50
2012,08,16,10,34,25.50
2012,08,16,10,35,25.60
2012,08,16,10,36,25.60
2012,08,16,10,37,25.60
2012,08,16,10,38,25.60
2012,08,16,10,39,25.70
2012,08,16,10,40,25.70
2012,08,16,10,41,25.70
2012,08,16,10,42,25.60
2012,08,16,10,43,25.60
2012,08,16,10,44,25.60
2012,08,16,10,45,25.60
2012,08,16,10,46,25.60
2012,08,16,10,47,25.50
2012,08,16,10,48,25.50
2012,08,16,10,49,25.50
2012,08,16,10,50,25.50
2012,08,16,10,51,25.50
2012,08,16,10,52,25.60
2012,08,16,10,53,25.60
2012,08,16,10,54,25.60
2012,08,16,10,55,25.60
2012,08,16,10,56,25.50
2012,08,16,10,57,25.60
2012,08,16,10,58,25.60
2012,08,16,10,59,25.70
2012,08,16,11,00,25.70
2012,08,16,11,01,25.70
2012,08,16,11,02,25.70
2012,08,16,11,03,25.80
2012,08,16,11,04,25.90
2012,08,16,11,05,25.90
2012,08,16,11,06,26.00
2012,08,16,11,07,26.10
2012,08,16,11,08,26.10
2012,08,16,11,09,26.20
2012,08,16,11,10,26.30
2012,08,16,11,11,26.30
2012,08,16,11,12,26.30
2012,08,16,11,13,26.30
2012,08,16,11,14,26.30
2012,08,16,11,15,26.30
2012,08,16,11,16,26.30
2012,08,16,11,17,26.30
2012,08,16,11,18,26.30
2012,08,16,11,19,26.40
2012,08,16,11,20,26.40
2012,08,16,11,21,26.50
2012,08,16,11,22,26.60
2012,08,16,11,23,26.50
2012,08,16,11,24,26.40
2012,08,16,11,25,26.40
2012,08,16,11,26,26.40
2012,08,16,11,27,26.40
2012,08,16,11,28,26.30
2012,08,16,11,29,26.40
2012,08,16,11,30,26.40
2012,08,16,11,31,26.40
2012,08,16,11,32,26.40
2012,08,16,11,33,26.40
2012,08,16,11,34,26.60
2012,08,16,11,35,26.60
2012,08,16,11,36,26.60
2012,08,16,11,37,26.60
2012,08,16,11,38,26.60
2012,08,16,11,39,26.60
2012,08,16,11,40,26.60
2012,08,16,11,41,26.60
2012,08,16,11,42,26.60
2012,08,16,11,43,26.60
2012,08,16,11,44,26.60
2012,08,16,11,45,26.60
2012,08,16,11,46,26.60
2012,08,16,11,47,26.70
2012,08,16,11,48,26.70
2012,08,16,11,49,26.70
2012,08,16,11,50,26.70
2012,08,16,11,51,26.70
2012,08,16,11,52,26.60
2012,08,16,11,53,26.70
2012,08,16,11,54,26.70
2012,08,16,11,55,26.80
2012,08,16,11,56,26.90
2012,08,16,11,57,26.90
2012,08,16,11,58,27.00
2012,08,16,11,59,27.10
2012,08,16,12,00,27.20
2012,08,16,12,01,27.20
2012,08,16,12,02,27.30
2012,08,16,12,03,27.30
2012,08,16,12,04,27.30
2012,08,16,12,05,27.30
2012,08,16,12,06,27.30
2012,08,16,12,07,27.30
2012,08,16,12,08,27.30
2012,08,16,12,09,27.30
2012,08,16,12,10,27.30
2012,08,16,12,11,27.30
2012,08,16,12,12,27.30
2012,08,16,12,13,27.30
2012,08,16,12,14,27.30
2012,08,16,12,15,27.40
2012,08,16,12,16,27.40
2012,08,16,12,17,27.40
2012,08,16,12,18,27.40
2012,08,16,12,19,27.50
2012,08,16,12,20,27.60
2012,08,16,12,21,27.50
2012,08,16,12,22,27.40
2012,08,16,12,23,27.40
2012,08,16,12,24,27.40
2012,08,16,12,25,27.30
2012,08,16,12,26,27.30
2012,08,16,12,27,27.30
2012,08,16,12,28,27.30
2012,08,16,12,29,27.30
2012,08,16,12,30,27.30
2012,08,16,12,31,27.30
2012,08,16,12,32,27.30
2012,08,16,12,33,27.40
2012,08,16,12,34,27.50
2012,08,16,12,35,27.60
2012,08,16,12,36,27.60
2012,08,16,12,37,27.50
2012,08,16,12,38,27.40
2012,08,16,12,39,27.40
2012,08,16,12,40,27.40
2012,08,16,12,41,27.40
2012,08,16,12,42,27.40
2012,08,16,12,43,27.50
2012,08,16,12,44,27.60
2012,08,16,12,45,27.60
2012,08,16,12,46,27.70
2012,08,16,12,47,27.80
2012,08,16,12,48,27.80
2012,08,16,12,49,27.90
2012,08,16,12,50,27.90
2012,08,16,12,51,27.90
2012,08,16,12,52,28.00
2012,08,16,12,53,28.00
2012,08,16,12,54,28.00
2012,08,16,12,55,28.00
2012,08,16,12,56,28.00
2012,08,16,12,57,28.00
2012,08,16,12,58,28.10
2012,08,16,12,59,28.20
2012,08,16,13,00,28.20
2012,08,16,13,01,28.20
2012,08,16,13,02,28.20
2012,08,16,13,03,28.30
2012,08,16,13,04,28.30
2012,08,16,13,05,28.30
2012,08,16,13,06,28.30
2012,08,16,13,07,28.30
2012,08,16,13,08,28.30
2012,08,16,13,09,28.20
2012,08,16,13,10,28.20
2012,08,16,13,11,28.20
2012,08,16,13,12,28.20
2012,08,16,13,13,28.30
2012,08,16,13,14,28.30
2012,08,16,13,15,28.30
2012,08,16,13,16,28.30
2012,08,16,13,17,28.20
2012,08,16,13,18,28.20
2012,08,16,13,19,28.20
2012,08,16,13,20,28.20
2012,08,16,13,21,28.20
2012,08,16,13,22,28.20
2012,08,16,13,23,28.30
2012,08,16,13,24,28.30
2012,08,16,13,25,28.40
2012,08,16,13,26,28.50
2012,08,16,13,27,28.60
2012,08,16,13,28,28.70
2012,08,16,13,29,28.70
2012,08,16,13,30,28.70
2012,08,16,13,31,28.70
2012,08,16,13,32,28.70
2012,08,16,13,33,28.70
2012,08,16,13,34,28.80
2012,08,16,13,35,28.80
2012,08,16,13,36,28.90
2012,08,16,13,37,28.90
2012,08,16,13,38,28.90
2012,08,16,13,39,28.90
2012,08,16,13,40,28.90
2012,08,16,13,41,28.90
2012,08,16,13,42,28.90
2012,08,16,13,43,28.90
2012,08,16,13,44,28.90
2012,08,16,13,45,28.90
2012,08,16,13,46,28.90
2012,08,16,13,47,29.00
2012,08,16,13,48,29.10
2012,08,16,13,49,29.10
2012,08,16,13,50,29.00
2012,08,16,13,51,28.90
2012,08,16,13,52,28.90
2012,08,16,13,53,28.90
2012,08,16,13,54,29.00
2012,08,16,13,55,29.10
2012,08,16,13,56,29.10
2012,08,16,13,57,29.20
2012,08,16,13,58,29.20
2012,08,16,13,59,29.20
2012,08,16,14,00,29.20
2012,08,16,14,01,29.10
2012,08,16,14,02,29.10
2012,08,16,14,03,29.10
2012,08,16,14,04,29.10
2012,08,16,14,05,29.10
2012,08,16,14,06,29.20
2012,08,16,14,07,29.20
2012,08,16,14,08,29.20
2012,08,16,14,09,29.20
2012,08,16,14,10,29.20
2012,08,16,14,11,29.20
2012,08,16,14,12,29.20
2012,08,16,14,13,29.20
2012,08,16,14,14,29.30
2012,08,16,14,15,29.40
2012,08,16,14,16,29.30
2012,08,16,14,17,29.30
2012,08,16,14,18,29.30
2012,08,16,14,19,29.20
2012,08,16,14,20,29.10
2012,08,16,14,21,29.00
2012,08,16,14,22,28.90
2012,08,16,14,23,28.90
2012,08,16,14,24,28.90
2012,08,16,14,25,28.90
2012,08,16,14,26,28.90
2012,08,16,14,27,28.90
2012,08,16,14,28,29.00
2012,08,16,14,29,29.10
2012,08,16,14,30,29.20
2012,08,16,14,31,29.10
2012,08,16,14,32,29.10
2012,08,16,14,33,29.20
2012,08,16,14,34,29.20
2012,08,16,14,35,29.20
2012,08,16,14,36,29.30
2012,08,16,14,37,29.30
2012,08,16,14,38,29.30
2012,08,16,14,39,29.40
2012,08,16,14,40,29.40
2012,08,16,14,41,29.50
2012,08,16,14,42,29.50
2012,08,16,14,43,29.50
2012,08,16,14,44,29.60
2012,08,16,14,45,29.50
2012,08,16,14,46,29.50
2012,08,16,14,47,29.50
2012,08,16,14,48,29.50
2012,08,16,14,49,29.50
2012,08,16,14,50,29.60
2012,08,16,14,51,29.60
2012,08,16,14,52,29.70
2012,08,16,14,53,29.80
2012,08,16,14,54,29.80
2012,08,16,14,55,29.80
2012,08,16,14,56,29.80
2012,08,16,14,57,29.80
2012,08,16,14,58,29.80
2012,08,16,14,59,29.80
2012,08,16,15,00,29.80
2012,08,16,15,01,29.80
2012,08,16,15,02,29.80
2012,08,16,15,03,29.80
2012,08,16,15,04,29.70
2012,08,16,15,05,29.70
2012,08,16,15,06,29.70
2012,08,16,15,07,29.70
2012,08,16,15,08,29.80
2012,08,16,15,09,29.90
2012,08,16,15,10,29.90
2012,08,16,15,11,30.00
2012,08,16,15,12,30.10
2012,08,16,15,13,30.20
2012,08,16,15,14,30.20
2012,08,16,15,15,30.20
2012,08,16,15,16,30.10
2012,08,16,15,17,30.10
2012,08,16,15,18,30.10
2012,08,16,15,19,30.10
2012,08,16,15,20,30.10
2012,08,16,15,21,30.00
2012,08,16,15,22,29.90
2012,08,16,15,23,29.90
2012,08,16,15,24,29.80
2012,08,16,15,25,29.90
2012,08,16,15,26,30.00
2012,08,16,15,27,30.10
2012,08,16,15,28,30.10
2012,08,16,15,29,30.20
2012,08,16,15,30,30.10
2012,08,16,15,31,30.10
2012,08,16,15,32,30.10
2012,08,16,15,33,30.10
2012,08,16,15,34,30.20
2012,08,16,15,35,30.10
2012,08,16,15,36,30.10
2012,08,16,15,37,30.10
2012,08,16,15,38,30.10
2012,08,16,15,39,30.10
2012,08,16,15,40,30.10
2012,08,16,15,41,30.10
2012,08,16,15,42,30.00
2012,08,16,15,43,29.90
2012,08,16,15,44,29.90
2012,08,16,15,45,29.80
2012,08,16,15,46,29.80
2012,08,16,15,47,29.90
2012,08,16,15,48,29.90
2012,08,16,15,49,30.00
2012,08,16,15,50,30.10
2012,08,16,15,51,30.30
2012,08,16,15,52,30.40
2012,08,16,15,53,30.60
2012,08,16,15,54,30.60
2012,08,16,15,55,30.60
2012,08,16,15,56,30.60
2012,08,16,15,57,30.70
2012,08,16,15,58,30.70
2012,08,16,15,59,30.80
2012,08,16,16,00,30.80
2012,08,16,16,01,30.80
2012,08,16,16,02,30.70
2012,08,16,16,03,30.70
2012,08,16,16,04,30.70
2012,08,16,16,05,30.70
2012,08,16,16,06,30.60
2012,08,16,16,07,30.40
2012,08,16,16,08,30.40
2012,08,16,16,09,30.40
2012,08,16,16,10,30.30
2012,08,16,16,11,30.20
2012,08,16,16,12,30.20
2012,08,16,16,13,30.10
2012,08,16,16,14,30.10
2012,08,16,16,15,30.20
2012,08,16,16,16,30.30
2012,08,16,16,17,30.40
2012,08,16,16,18,30.50
2012,08,16,16,19,30.60
2012,08,16,16,20,30.70
2012,08,16,16,21,30.80
2012,08,16,16,22,30.80
2012,08,16,16,23,30.70
2012,08,16,16,24,30.70
2012,08,16,16,25,30.60
2012,08,16,16,26,30.60
2012,08,16,16,27,30.70
2012,08,16,16,28,30.70
2012,08,16,16,29,30.70
2012,08,16,16,30,30.70
2012,08,16,16,31,30.80
2012,08,16,16,32,30.90
2012,08,16,16,33,30.90
2012,08,16,16,34,31.00
2012,08,16,16,35,31.10
2012,08,16,16,36,31.10
2012,08,16,16,37,31.20
2012,08,16,16,38,31.20
2012,08,16,16,39,31.20
2012,08,16,16,40,31.20
2012,08,16,16,41,31.20
2012,08,16,16,42,31.20
2012,08,16,16,43,31.20
2012,08,16,16,44,31.20
2012,08,16,16,45,31.10
2012,08,16,16,46,31.10
2012,08,16,16,47,31.10
2012,08,16,16,48,31.10
2012,08,16,16,49,31.10
2012,08,16,16,50,31.10
2012,08,16,16,51,31.10
2012,08,16,16,52,31.10
2012,08,16,16,53,31.20
2012,08,16,16,54,31.20
2012,08,16,16,55,31.30
2012,08,16,16,56,31.30
2012,08,16,16,57,31.30
2012,08,16,16,58,31.30
2012,08,16,16,59,31.20
2012,08,16,17,00,31.20
2012,08,16,17,01,31.10
2012,08,16,17,02,31.10
2012,08,16,17,03,31.10
2012,08,16,17,04,31.20
2012,08,16,17,05,31.20
2012,08,16,17,06,31.20
2012,08,16,17,07,31.20
2012,08,16,17,08,31.20
2012,08,16,17,09,31.20
2012,08,16,17,10,31.20
2012,08,16,17,11,31.20
2012,08,16,17,12,31.20
2012,08,16,17,13,31.20
2012,08,16,17,14,31.20
2012,08,16,17,15,31.20
2012,08,16,17,16,31.20
2012,08,16,17,17,31.30
2012,08,16,17,18,31.30
2012,08,16,17,19,31.30
2012,08,16,17,20,31.30
2012,08,16,17,21,31.40
2012,08,16,17,22,31.40
2012,08,16,17,23,31.40
2012,08,16,17,24,31.40
2012,08,16,17,25,31.30
2012,08,16,17,26,31.20
2012,08,16,17,27,31.20
2012,08,16,17,28,31.10
2012,08,16,17,29,31.10
2012,08,16,17,30,31.10
2012,08,16,17,31,31.00
2012,08,16,17,32,31.10
2012,08,16,17,33,31.10
2012,08,16,17,34,31.10
2012,08,16,17,35,31.00
2012,08,16,17,36,31.00
2012,08,16,17,37,31.00
2012,08,16,17,38,31.00
2012,08,16,17,39,31.00
2012,08,16,17,40,31.00
2012,08,16,17,41,31.00
2012,08,16,17,42,31.10
2012,08,16,17,43,31.00
2012,08,16,17,44,31.00
2012,08,16,17,45,30.90
2012,08,16,17,46,30.80
2012,08,16,17,47,30.70
2012,08,16,17,48,30.60
2012,08,16,17,49,30.40
2012,08,16,17,50,30.30
2012,08,16,17,51,30.20
2012,08,16,17,52,30.10
2012,08,16,17,53,30.10
2012,08,16,17,54,30.00
2012,08,16,17,55,29.90
2012,08,16,17,56,29.80
2012,08,16,17,57,29.60
2012,08,16,17,58,29.40
2012,08,16,17,59,29.30
2012,08,16,18,00,29.10
2012,08,16,18,01,29.00
2012,08,16,18,02,28.90
2012,08,16,18,03,28.80
2012,08,16,18,04,28.80
2012,08,16,18,05,28.80
2012,08,16,18,06,28.70
2012,08,16,18,07,28.70
2012,08,16,18,08,28.70
2012,08,16,18,09,28.70
2012,08,16,18,10,28.60
2012,08,16,18,11,28.60
2012,08,16,18,12,28.60
2012,08,16,18,13,28.60
2012,08,16,18,14,28.70
2012,08,16,18,15,28.70
2012,08,16,18,16,28.70
2012,08,16,18,17,28.70
2012,08,16,18,18,28.70
2012,08,16,18,19,28.60
2012,08,16,18,20,28.60
2012,08,16,18,21,28.50
2012,08,16,18,22,28.40
2012,08,16,18,23,28.40
2012,08,16,18,24,28.40
2012,08,16,18,25,28.30
2012,08,16,18,26,28.30
2012,08,16,18,27,28.10
2012,08,16,18,28,28.00
2012,08,16,18,29,27.90
2012,08,16,18,30,27.80
2012,08,16,18,31,27.70
2012,08,16,18,32,27.60
2012,08,16,18,33,27.50
2012,08,16,18,34,27.40
2012,08,16,18,35,27.30
2012,08,16,18,36,27.20
2012,08,16,18,37,27.20
2012,08,16,18,38,27.10
2012,08,16,18,39,27.10
2012,08,16,18,40,27.00
2012,08,16,18,41,26.90
2012,08,16,18,42,26.80
2012,08,16,18,43,26.80
2012,08,16,18,44,26.70
2012,08,16,18,45,26.70
2012,08,16,18,46,26.70